• In Schweiz
  • Länderverzeichnis
  • Für 7 Tage
  • Wassertemperatur
  • Satellitenkarten
  • Wetterkarte
  • Widgets
  • user-avatar
    Anmelden

    Stündliche Wetter Leknes

    Heute, 18 Oktober, Donnerstag

    Zeit Temperatur Niederschläge Wind Luftdruck Luftfeuchtigkeit
    00:00 +4°C° 0.2 mm 13 m/S 728 mmHg 78%
    01:00 +4°C° 0.2 mm 14 m/S 728 mmHg 76%
    02:00 +4°C° 0.2 mm 14 m/S 728 mmHg 76%
    03:00 +4°C° 0.2 mm 14 m/S 728 mmHg 76%
    04:00 +3°C° 0.2 mm 14 m/S 727 mmHg 77%
    05:00 +3°C° 0.1 mm 14 m/S 727 mmHg 75%
    06:00 +3°C° 0.1 mm 14 m/S 727 mmHg 74%
    07:00 +3°C° 0.1 mm 14 m/S 726 mmHg 72%
    08:00 +3°C° 0.6 mm 14 m/S 726 mmHg 74%
    09:00 +3°C° 0.6 mm 14 m/S 726 mmHg 76%
    10:00 +3°C° 0.6 mm 14 m/S 725 mmHg 78%
    11:00 +4°C° 0.8 mm 14 m/S 725 mmHg 83%
    12:00 +4°C° 0.8 mm 14 m/S 725 mmHg 87%
    13:00 +4°C° 0.8 mm 14 m/S 725 mmHg 92%
    14:00 +4°C° 0.8 mm 15 m/S 725 mmHg 91%
    15:00 +4°C° 0.8 mm 15 m/S 725 mmHg 91%
    16:00 +5°C° 0.8 mm 16 m/S 726 mmHg 91%
    17:00 +5°C° 0.5 mm 15 m/S 726 mmHg 91%
    18:00 +5°C° 0.5 mm 14 m/S 727 mmHg 92%
    19:00 +5°C° 0.5 mm 14 m/S 728 mmHg 93%
    20:00 +5°C° 0.2 mm 13 m/S 729 mmHg 93%
    21:00 +5°C° 0.2 mm 13 m/S 730 mmHg 92%
    22:00 +5°C° 0.2 mm 13 m/S 731 mmHg 92%
    23:00 +4°C° 0.1 mm 12 m/S 732 mmHg 89%

    Morgen, 19 Oktober, Freitag

    Zeit Temperatur Niederschläge Wind Luftdruck Luftfeuchtigkeit
    00:00 +4°C° 0.1 mm 11 m/S 733 mmHg 86%
    01:00 +4°C° 0.1 mm 11 m/S 734 mmHg 83%
    02:00 +5°C° 0.1 mm 10 m/S 734 mmHg 85%
    03:00 +5°C° 0.1 mm 10 m/S 735 mmHg 86%
    04:00 +5°C° 0.1 mm 10 m/S 736 mmHg 88%
    05:00 +5°C° 0.2 mm 9 m/S 736 mmHg 88%
    06:00 +5°C° 0.2 mm 8 m/S 736 mmHg 89%
    07:00 +5°C° 0.2 mm 7 m/S 737 mmHg 89%
    08:00 +4°C° 0.1 mm 7 m/S 737 mmHg 87%
    09:00 +4°C° 0.1 mm 7 m/S 737 mmHg 84%
    10:00 +4°C° 0.1 mm 7 m/S 738 mmHg 82%
    11:00 +4°C° 0.1 mm 7 m/S 738 mmHg 82%
    12:00 +4°C° 0.1 mm 7 m/S 738 mmHg 81%
    13:00 +4°C° 0.1 mm 7 m/S 738 mmHg 80%
    14:00 +4°C° 0.5 mm 7 m/S 737 mmHg 82%
    15:00 +4°C° 0.5 mm 7 m/S 737 mmHg 83%
    16:00 +4°C° 0.5 mm 8 m/S 737 mmHg 84%
    17:00 +4°C° 0.6 mm 8 m/S 737 mmHg 85%
    18:00 +4°C° 0.6 mm 8 m/S 736 mmHg 86%
    19:00 +4°C° 0.6 mm 8 m/S 736 mmHg 87%
    20:00 +3°C° 0.6 mm 9 m/S 736 mmHg 86%
    21:00 +3°C° 0.6 mm 10 m/S 735 mmHg 84%
    22:00 +3°C° 0.6 mm 11 m/S 735 mmHg 83%
    23:00 +3°C° 0.7 mm 11 m/S 735 mmHg 82%

    übermorgen, 20 Oktober, Samstag

    Zeit Temperatur Niederschläge Wind Luftdruck Luftfeuchtigkeit
    00:00 +3°C° 0.7 mm 12 m/S 734 mmHg 81%
    01:00 +3°C° 0.7 mm 12 m/S 734 mmHg 80%
    02:00 +3°C° 0.6 mm 11 m/S 734 mmHg 81%
    03:00 +3°C° 0.6 mm 10 m/S 734 mmHg 82%
    04:00 +3°C° 0.6 mm 9 m/S 735 mmHg 83%
    05:00 +4°C° 0.2 mm 8 m/S 735 mmHg 85%
    06:00 +4°C° 0.2 mm 8 m/S 735 mmHg 87%
    07:00 +4°C° 0.2 mm 8 m/S 736 mmHg 89%
    08:00 +4°C° 0.2 mm 8 m/S 736 mmHg 87%
    09:00 +4°C° 0.2 mm 8 m/S 737 mmHg 85%
    10:00 +3°C° 0.2 mm 9 m/S 737 mmHg 83%
    11:00 +5°C° 0.1 mm 9 m/S 737 mmHg 81%
    12:00 +5°C° 0.1 mm 9 m/S 738 mmHg 78%
    13:00 +5°C° 0.1 mm 9 m/S 738 mmHg 76%
    14:00 +5°C° 0.1 mm 9 m/S 737 mmHg 76%
    15:00 +5°C° 0.1 mm 10 m/S 737 mmHg 76%
    16:00 +3°C° 0.1 mm 10 m/S 737 mmHg 76%
    17:00 +3°C° 0.1 mm 12 m/S 736 mmHg 76%
    18:00 +3°C° 0.1 mm 13 m/S 735 mmHg 75%
    19:00 +3°C° 0.1 mm 14 m/S 734 mmHg 74%
    20:00 +1°C° 0.9 mm 15 m/S 732 mmHg 74%
    21:00 +1°C° 0.9 mm 16 m/S 730 mmHg 74%
    22:00 +1°C° 0.9 mm 18 m/S 729 mmHg 74%
    23:00 +1°C° 1.3 mm 17 m/S 728 mmHg 75%

    21 Oktober, Sonntag

    Zeit Temperatur Niederschläge Wind Luftdruck Luftfeuchtigkeit
    00:00 +2°C° 1.3 mm 17 m/S 727 mmHg 77%
    01:00 +2°C° 1.3 mm 17 m/S 726 mmHg 78%
    02:00 +2°C° 0.6 mm 17 m/S 726 mmHg 80%
    03:00 +3°C° 0.6 mm 17 m/S 726 mmHg 81%
    04:00 +3°C° 0.6 mm 17 m/S 726 mmHg 83%
    05:00 +3°C° 0.3 mm 17 m/S 726 mmHg 81%
    06:00 +3°C° 0.3 mm 17 m/S 726 mmHg 80%
    07:00 +2°C° 0.3 mm 17 m/S 726 mmHg 78%
    08:00 +2°C° 0.4 mm 17 m/S 726 mmHg 77%
    09:00 +3°C° 0.4 mm 17 m/S 726 mmHg 76%
    10:00 +3°C° 0.4 mm 17 m/S 725 mmHg 75%
    11:00 +3°C° 0.2 mm 17 m/S 725 mmHg 74%
    12:00 +3°C° 0.2 mm 17 m/S 725 mmHg 74%
    13:00 +3°C° 0.2 mm 17 m/S 725 mmHg 73%
    14:00 +2°C° 0.1 mm 17 m/S 724 mmHg 73%
    15:00 +2°C° 0.1 mm 17 m/S 724 mmHg 72%
    16:00 +2°C° 0.1 mm 17 m/S 724 mmHg 72%
    17:00 +2°C° 0.2 mm 17 m/S 724 mmHg 72%
    18:00 +2°C° 0.2 mm 17 m/S 724 mmHg 72%
    19:00 +1°C° 0.2 mm 17 m/S 724 mmHg 72%
    20:00 +1°C° 0.2 mm 17 m/S 723 mmHg 69%
    21:00 +1°C° 0.2 mm 17 m/S 723 mmHg 66%
    22:00 +1°C° 0.2 mm 17 m/S 723 mmHg 63%
    23:00 +1°C° 0.2 mm 17 m/S 723 mmHg 64%

    22 Oktober, Montag

    Zeit Temperatur Niederschläge Wind Luftdruck Luftfeuchtigkeit
    00:00 0°C° 0.2 mm 16 m/S 722 mmHg 65%
    01:00 0°C° 0.2 mm 15 m/S 722 mmHg 65%
    02:00 0°C° 0.3 mm 15 m/S 721 mmHg 68%
    03:00 0°C° 0.3 mm 15 m/S 721 mmHg 70%
    04:00 0°C° 0.3 mm 14 m/S 720 mmHg 72%
    05:00 0°C° 0.3 mm 14 m/S 720 mmHg 70%
    06:00 0°C° 0.3 mm 15 m/S 720 mmHg 68%
    07:00 0°C° 0.3 mm 15 m/S 719 mmHg 66%
    08:00 0°C° 0.2 mm 15 m/S 719 mmHg 67%
    09:00 -1°C° 0.2 mm 15 m/S 719 mmHg 68%
    10:00 -1°C° 0.2 mm 15 m/S 718 mmHg 69%
    11:00 -1°C° 0.4 mm 15 m/S 718 mmHg 71%
    12:00 -1°C° 0.4 mm 15 m/S 718 mmHg 72%
    13:00 0°C° 0.4 mm 15 m/S 717 mmHg 74%
    14:00 0°C° 0.7 mm 15 m/S 717 mmHg 76%
    15:00 0°C° 0.7 mm 15 m/S 717 mmHg 78%
    16:00 0°C° 0.7 mm 14 m/S 717 mmHg 80%
    17:00 0°C° 0.5 mm 14 m/S 717 mmHg 79%
    18:00 +1°C° 0.5 mm 14 m/S 717 mmHg 77%
    19:00 +1°C° 0.5 mm 13 m/S 717 mmHg 76%
    20:00 +1°C° 0.4 mm 14 m/S 717 mmHg 76%
    21:00 +1°C° 0.4 mm 14 m/S 717 mmHg 76%
    22:00 +1°C° 0.4 mm 14 m/S 717 mmHg 77%
    23:00 +1°C° 0.4 mm 14 m/S 717 mmHg 78%

    23 Oktober, Dienstag

    Zeit Temperatur Niederschläge Wind Luftdruck Luftfeuchtigkeit
    00:00 +1°C° 0.4 mm 14 m/S 717 mmHg 78%
    01:00 +1°C° 0.4 mm 14 m/S 716 mmHg 79%
    02:00 +1°C° 0.6 mm 15 m/S 717 mmHg 80%
    03:00 +1°C° 0.6 mm 15 m/S 717 mmHg 80%
    04:00 +2°C° 0.6 mm 16 m/S 717 mmHg 81%
    05:00 +2°C° 0.5 mm 16 m/S 718 mmHg 80%
    06:00 +2°C° 0.5 mm 17 m/S 718 mmHg 80%
    07:00 +2°C° 0.5 mm 18 m/S 719 mmHg 80%
    08:00 +2°C° 0.2 mm 17 m/S 721 mmHg 80%
    09:00 +2°C° 0.2 mm 17 m/S 722 mmHg 81%
    10:00 +2°C° 0.2 mm 16 m/S 723 mmHg 81%
    11:00 +2°C° 0.1 mm 16 m/S 724 mmHg 81%
    12:00 +2°C° 0.1 mm 15 m/S 726 mmHg 81%
    13:00 +3°C° 0.1 mm 14 m/S 727 mmHg 81%
    14:00 +1°C° 0.1 mm 14 m/S 727 mmHg 80%
    15:00 +1°C° 0.1 mm 13 m/S 728 mmHg 79%
    16:00 +2°C° 0.1 mm 12 m/S 728 mmHg 78%
    17:00 +2°C° 0.1 mm 11 m/S 728 mmHg 77%
    18:00 +2°C° 0.1 mm 10 m/S 729 mmHg 77%
    19:00 +2°C° 0.1 mm 9 m/S 729 mmHg 77%
    20:00 +2°C° 0.2 mm 8 m/S 729 mmHg 78%
    21:00 +2°C° 0.2 mm 8 m/S 729 mmHg 78%
    22:00 +2°C° 0.2 mm 7 m/S 729 mmHg 79%
    23:00 +2°C° 0.3 mm 7 m/S 729 mmHg 80%
    Mehr zeigen